| time (UTC) | temp C | wind direction | speed KPH | gust KPH | rain 1hr cm | rain 24hr cm | rain mn cm | humidity % | barometer mb |
| 20260504004531 | 31 | 330 | 3.2 | 9.7 | 0.00 | 0.00 | 0.00 | 26 | 1007.7 |
| 20260504003033 | 31 | 294 | 3.2 | 8.0 | 0.00 | 0.00 | 0.00 | 26 | 1007.9 |
| 20260504001528 | 31 | 302 | 3.2 | 12.9 | 0.00 | 0.00 | 0.00 | 30 | 1007.9 |
| 20260504000024 | 31 | 286 | 4.8 | 12.9 | 0.00 | 0.00 | 0.00 | 28 | 1007.8 |
| 20260503234537 | 31 | 277 | 4.8 | 11.3 | 0.00 | 0.00 | 0.00 | 28 | 1007.9 |
| 20260503233026 | 31 | 319 | 1.6 | 12.9 | 0.00 | 0.00 | 0.00 | 28 | 1008.0 |
| 20260503231533 | 31 | 287 | 4.8 | 12.9 | 0.00 | 0.00 | 0.00 | 28 | 1008.2 |
| 20260503230026 | 31 | 282 | 4.8 | 11.3 | 0.00 | 0.00 | 0.00 | 29 | 1008.4 |
| 20260503224526 | 31 | 312 | 3.2 | 9.7 | 0.00 | 0.00 | 0.00 | 29 | 1008.7 |
| 20260503223009 | 31 | 315 | 3.2 | 12.9 | 0.00 | 0.00 | 0.00 | 28 | 1009.0 |
| 20260503221515 | 31 | 313 | 3.2 | 12.9 | 0.00 | 0.00 | 0.00 | 33 | 1009.2 |
| 20260503220020 | 30 | 241 | 3.2 | 11.3 | 0.00 | 0.00 | 0.00 | 33 | 1009.5 |
| 20260503214526 | 30 | 9 | 3.2 | 11.3 | 0.00 | 0.00 | 0.00 | 36 | 1009.8 |
| 20260503213024 | 30 | 306 | 4.8 | 11.3 | 0.00 | 0.00 | 0.00 | 35 | 1009.9 |
| 20260503211512 | 30 | 350 | 4.8 | 12.9 | 0.00 | 0.00 | 0.00 | 36 | 1010.0 |
| 20260503210025 | 30 | 235 | 3.2 | 9.7 | 0.00 | 0.00 | 0.00 | 35 | 1010.1 |
| 20260503204533 | 29 | 332 | 3.2 | 11.3 | 0.00 | 0.00 | 0.00 | 37 | 1010.3 |
| 20260503203025 | 29 | 311 | 4.8 | 12.9 | 0.00 | 0.00 | 0.00 | 37 | 1010.4 |
| 20260503201526 | 28 | 336 | 6.4 | 9.7 | 0.00 | 0.00 | 0.00 | 38 | 1010.6 |
| 20260503200016 | 28 | 337 | 3.2 | 9.7 | 0.00 | 0.00 | 0.00 | 37 | 1010.8 |
| 20260503194523 | 28 | 288 | 4.8 | 14.5 | 0.00 | 0.00 | 0.00 | 38 | 1011.0 |
| 20260503193032 | 27 | 304 | 4.8 | 14.5 | 0.00 | 0.00 | 0.00 | 39 | 1011.2 |
| 20260503191526 | 27 | 338 | 4.8 | 14.5 | 0.00 | 0.00 | 0.00 | 40 | 1011.3 |
| 20260503190013 | 26 | 347 | 6.4 | 16.1 | 0.00 | 0.00 | 0.00 | 42 | 1011.5 |
| 20260503184532 | 26 | 331 | 8.0 | 14.5 | 0.00 | 0.00 | 0.00 | 44 | 1011.6 |
| 20260503183024 | 26 | 277 | 6.4 | 12.9 | 0.00 | 0.00 | 0.00 | 46 | 1011.7 |
| 20260503181526 | 25 | 352 | 4.8 | 14.5 | 0.00 | 0.00 | 0.00 | 49 | 1011.7 |
| 20260503180031 | 25 | 334 | 6.4 | 12.9 | 0.00 | 0.00 | 0.00 | 52 | 1011.8 |
| 20260503174515 | 24 | 289 | 4.8 | 12.9 | 0.00 | 0.00 | 0.00 | 53 | 1012.0 |
| 20260503173039 | 23 | 296 | 4.8 | 14.5 | 0.00 | 0.00 | 0.00 | 56 | 1011.9 |
| 20260503171524 | 22 | 310 | 3.2 | 8.0 | 0.00 | 0.00 | 0.00 | 62 | 1012.1 |
| 20260503081513 | 11 | 221 | 0.0 | 3.2 | 0.00 | 0.00 | 0.00 | 91 | 1013.2 |
| 20260503071515 | 12 | 223 | 4.8 | 6.4 | 0.00 | 0.00 | 0.00 | 91 | 1013.1 |
| 20260503054525 | 15 | 205 | 1.6 | 3.2 | 0.00 | 0.00 | 0.00 | 84 | 1013.4 |
| 20260503053029 | 15 | 17 | 1.6 | 3.2 | 0.00 | 0.00 | 0.00 | 83 | 1013.4 |
| 20260503051517 | 15 | 38 | 3.2 | 4.8 | 0.00 | 0.00 | 0.00 | 83 | 1013.3 |
| 20260503050021 | 16 | 46 | 0.0 | 3.2 | 0.00 | 0.00 | 0.00 | 82 | 1013.1 |
| 20260503044512 | 16 | 92 | 1.6 | 6.4 | 0.00 | 0.00 | 0.00 | 82 | 1013.3 |
| 20260503043022 | 16 | 219 | 0.0 | 3.2 | 0.00 | 0.00 | 0.00 | 81 | 1013.0 |
| 20260503041522 | 16 | 240 | 3.2 | 6.4 | 0.00 | 0.00 | 0.00 | 78 | 1012.8 |
| 20260503040021 | 17 | 279 | 1.6 | 3.2 | 0.00 | 0.00 | 0.00 | 77 | 1012.8 |
| 20260503034527 | 17 | 296 | 0.0 | 3.2 | 0.00 | 0.00 | 0.00 | 76 | 1012.7 |
| 20260503033018 | 17 | 238 | 1.6 | 8.0 | 0.00 | 0.00 | 0.00 | 76 | 1012.7 |
| 20260503031521 | 17 | 257 | 1.6 | 9.7 | 0.00 | 0.00 | 0.00 | 76 | 1012.5 |
| 20260503030022 | 17 | 255 | 6.4 | 11.3 | 0.00 | 0.00 | 0.00 | 77 | 1012.7 |
| 20260503024520 | 18 | 245 | 3.2 | 6.4 | 0.00 | 0.00 | 0.00 | 75 | 1013.1 |
| 20260503023014 | 18 | 190 | 0.0 | 4.8 | 0.00 | 0.00 | 0.00 | 72 | 1013.5 |
| 20260503021517 | 18 | 44 | 3.2 | 16.1 | 0.00 | 0.00 | 0.00 | 71 | 1013.7 |
| 20260503020022 | 18 | 32 | 4.8 | 9.7 | 0.00 | 0.00 | 0.00 | 70 | 1013.5 |
| 20260503014522 | 19 | 74 | 0.0 | 4.8 | 0.00 | 0.00 | 0.00 | 69 | 1012.9 |
| 20260503013020 | 20 | 86 | 0.0 | 3.2 | 0.00 | 0.00 | 0.00 | 67 | 1012.6 |
| 20260503011520 | 20 | 155 | 1.6 | 6.4 | 0.00 | 0.00 | 0.00 | 67 | 1012.7 |
| 20260503010022 | 20 | 220 | 1.6 | 11.3 | 0.00 | 0.00 | 0.00 | 67 | 1012.7 |